Date,TemperatureHighF,TemperatureAvgF,TemperatureLowF,DewpointHighF,DewpointAvgF,DewpointLowF,HumidityHigh,HumidityAvg,HumidityLow,PressureMaxIn,PressureMinIn,WindSpeedMaxMPH,WindSpeedAvgMPH,GustSpeedMaxMPH,PrecipitationSumIn
2013-1-1,30,12,2,-100,-100,-100,0,0,100,0.00,40.00,0,-999,0,0.01
2013-1-2,26,11,-1,-100,-100,-100,0,0,100,0.00,40.00,0,-999,0,0.00
2013-1-3,32,14,5,-100,-100,-100,0,0,100,0.00,40.00,0,-999,0,0.00
2013-1-4,32,15,6,-100,-100,-100,0,0,100,0.00,40.00,0,-999,0,0.00
2013-1-5,30,18,6,-100,-100,-100,0,0,100,0.00,40.00,0,-999,0,0.01
2013-1-6,30,20,11,-100,-100,-100,0,0,100,0.00,40.00,0,-999,0,0.01
2013-1-7,24,20,9,-100,-100,-100,0,0,100,0.00,40.00,0,-999,0,0.03
2013-1-8,32,28,25,-100,-100,-100,0,0,100,0.00,40.00,0,-999,0,0.02
2013-1-9,35,33,30,-100,-100,-100,0,0,100,0.00,40.00,0,-999,0,0.03
2013-1-10,29,21,15,-100,-100,-100,0,0,100,0.00,40.00,0,-999,0,0.03
2013-1-11,16,11,-4,-100,-100,-100,0,0,100,0.00,40.00,0,-999,0,0.00
2013-1-12,15,0,-16,-100,-100,-100,0,0,100,0.00,40.00,0,-999,0,0.00
2013-1-13,14,0,-10,-100,-100,-100,0,0,100,0.00,40.00,0,-999,0,0.00
2013-1-14,14,7,-10,-100,-100,-100,0,0,100,0.00,40.00,0,-999,0,0.02
2013-1-15,30,20,13,-100,-100,-100,0,0,100,0.00,40.00,0,-999,0,0.01
2013-1-16,30,17,8,-100,-100,-100,0,0,100,0.00,40.00,0,-999,0,0.00
2013-1-17,31,16,7,-100,-100,-100,0,0,100,0.00,40.00,0,-999,0,0.00
2013-1-18,31,18,8,-100,-100,-100,0,0,100,0.00,40.00,0,-999,0,0.00
2013-1-19,34,15,6,-100,-100,-100,0,0,100,0.00,40.00,0,-999,0,0.00
2013-1-20,36,20,7,-100,-100,-100,0,0,100,0.00,40.00,0,-999,0,0.01
2013-1-21,35,21,13,-100,-100,-100,0,0,100,0.00,40.00,0,-999,0,0.00
2013-1-22,39,21,6,-100,-100,-100,0,0,100,0.00,40.00,0,-999,0,0.01
2013-1-23,36,26,15,-100,-100,-100,0,0,100,0.00,40.00,0,-999,0,0.01
2013-1-24,34,32,30,-100,-100,-100,0,0,100,0.00,40.00,0,-999,0,0.03
2013-1-25,36,34,32,-100,-100,-100,0,0,100,0.00,40.00,0,-999,0,0.04
2013-1-26,34,31,25,-100,-100,-100,0,0,100,0.00,40.00,0,-999,0,0.04
2013-1-27,27,19,11,-100,-100,-100,0,0,100,0.00,40.00,0,-999,0,0.01
2013-1-28,24,18,9,-100,-100,-100,0,0,100,0.00,40.00,0,-999,0,0.00
2013-1-29,29,24,20,-100,-100,-100,0,0,100,0.00,40.00,0,-999,0,0.04
2013-1-30,33,29,25,-100,-100,-100,0,0,100,0.00,40.00,0,-999,0,0.03
2013-1-31,35,31,28,-100,-100,-100,0,0,100,0.00,40.00,0,-999,0,0.01
2013-2-1,35,30,17,-100,-100,-100,0,0,100,0.00,40.00,0,-999,0,0.01
2013-2-2,36,24,12,-100,-100,-100,0,0,100,0.00,40.00,0,-999,0,0.00
2013-2-3,34,24,11,-100,-100,-100,0,0,100,0.00,40.00,0,-999,0,0.01
2013-2-4,37,29,22,-100,-100,-100,0,0,100,0.00,40.00,0,-999,0,0.01
2013-2-5,38,31,26,-100,-100,-100,0,0,100,0.00,40.00,0,-999,0,0.01
2013-2-6,34,26,16,-100,-100,-100,0,0,100,0.00,40.00,0,-999,0,0.00
2013-2-7,35,28,21,-100,-100,-100,0,0,100,0.00,40.00,0,-999,0,0.01
2013-2-8,28,22,12,-100,-100,-100,0,0,100,0.00,40.00,0,-999,0,0.00
2013-2-9,26,23,19,-100,-100,-100,0,0,100,0.00,40.00,0,-999,0,0.00
2013-2-10,29,20,11,-100,-100,-100,0,0,100,0.00,40.00,0,-999,0,0.00
2013-2-11,32,16,1,-100,-100,-100,0,0,100,0.00,40.00,0,-999,0,0.00
2013-2-12,35,26,15,-100,-100,-100,0,0,100,0.00,40.00,0,-999,0,0.01
2013-2-13,36,30,27,-100,-100,-100,0,0,100,0.00,40.00,0,-999,0,0.01
2013-2-14,38,28,14,-100,-100,-100,0,0,100,0.00,40.00,0,-999,0,0.00
2013-2-15,43,28,12,-100,-100,-100,0,0,100,0.00,40.00,0,-999,0,0.00
2013-2-16,43,31,18,-100,-100,-100,0,0,100,0.00,40.00,0,-999,0,0.01
2013-2-17,30,22,8,-100,-100,-100,0,0,100,0.00,40.00,0,-999,0,0.01
2013-2-18,31,16,3,-100,-100,-100,0,0,100,0.00,40.00,0,-999,0,0.00
2013-2-19,30,24,14,-100,-100,-100,0,0,100,0.00,40.00,0,-999,0,0.01
2013-2-20,30,17,4,-100,-100,-100,0,0,100,0.00,40.00,0,-999,0,0.00
2013-2-21,31,13,-2,-100,-100,-100,0,0,100,0.00,40.00,0,-999,0,0.01
2013-2-22,27,24,22,-100,-100,-100,0,0,100,0.00,40.00,0,-999,0,0.03
2013-2-23,28,22,14,-100,-100,-100,0,0,100,0.00,40.00,0,-999,0,0.03
2013-2-24,33,21,11,-100,-100,-100,0,0,100,0.00,40.00,0,-999,0,0.01
2013-2-25,26,21,12,-100,-100,-100,0,0,100,0.00,40.00,0,-999,0,0.02
2013-2-26,31,14,4,-100,-100,-100,0,0,100,0.00,40.00,0,-999,0,0.01
2013-2-27,34,17,5,-100,-100,-100,0,0,100,0.00,40.00,0,-999,0,0.00
2013-2-28,33,27,16,-100,-100,-100,0,0,100,0.00,40.00,0,-999,0,0.02
2013-3-1,38,34,30,-100,-100,-100,0,0,100,0.00,40.00,0,-999,0,0.01
2013-3-2,44,34,26,-100,-100,-100,0,0,100,0.00,40.00,0,-999,0,0.01
2013-3-3,36,28,11,-100,-100,-100,0,0,100,0.00,40.00,0,-999,0,0.01
2013-3-4,35,17,-1,-100,-100,-100,0,0,100,0.00,40.00,0,-999,0,0.00
2013-3-5,37,25,5,-100,-100,-100,0,0,100,0.00,40.00,0,-999,0,0.01
2013-3-6,38,31,27,-100,-100,-100,0,0,100,0.00,40.00,0,-999,0,0.02
2013-3-7,37,26,16,-100,-100,-100,0,0,100,0.00,40.00,0,-999,0,0.01
2013-3-8,41,24,9,-100,-100,-100,0,0,100,0.00,40.00,0,-999,0,0.00
2013-3-9,38,27,14,-100,-100,-100,0,0,100,0.00,40.00,0,-999,0,0.01
2013-3-10,44,30,11,-100,-100,-100,0,0,100,0.00,40.00,0,-999,0,0.00
2013-3-11,40,34,31,-100,-100,-100,0,0,100,0.00,40.00,0,-999,0,0.02
2013-3-12,39,34,31,-100,-100,-100,0,0,100,0.00,40.00,0,-999,0,0.01
2013-3-13,48,39,31,-100,-100,-100,0,0,100,0.00,40.00,0,-999,0,0.00
2013-3-14,53,40,29,-100,-100,-100,0,0,100,0.00,40.00,0,-999,0,0.00
2013-3-15,52,39,30,-100,-100,-100,0,0,100,0.00,40.00,0,-999,0,0.00
2013-3-16,42,33,22,-100,-100,-100,0,0,100,0.00,40.00,0,-999,0,0.01
2013-3-17,30,24,17,-100,-100,-100,0,0,100,0.00,40.00,0,-999,0,0.01
2013-3-18,30,23,15,-100,-100,-100,0,0,100,0.00,40.00,0,-999,0,0.00
2013-3-19,40,26,3,-100,-100,-100,0,0,100,0.00,40.00,0,-999,0,0.00
2013-3-20,37,34,29,-100,-100,-100,0,0,100,0.00,40.00,0,-999,0,0.03
2013-3-21,28,24,18,-100,-100,-100,0,0,100,0.00,40.00,0,-999,0,0.01
2013-3-22,26,18,8,-100,-100,-100,0,0,100,0.00,40.00,0,-999,0,0.00
2013-3-23,27,13,-3,-100,-100,-100,0,0,100,0.00,40.00,0,-999,0,0.00
2013-3-24,35,19,2,-100,-100,-100,0,0,100,0.00,40.00,0,-999,0,0.01
2013-3-25,40,25,6,-100,-100,-100,0,0,100,0.00,40.00,0,-999,0,0.01
2013-3-26,46,33,24,-100,-100,-100,0,0,100,0.00,40.00,0,-999,0,0.01
2013-3-27,48,35,22,-100,-100,-100,0,0,100,0.00,40.00,0,-999,0,0.01
2013-3-28,50,39,32,-100,-100,-100,0,0,100,0.00,40.00,0,-999,0,0.01
2013-3-29,47,38,30,-100,-100,-100,0,0,100,0.00,40.00,0,-999,0,0.00
2013-3-30,56,37,25,-100,-100,-100,0,0,100,0.00,40.00,0,-999,0,0.00
2013-3-31,60,39,24,-100,-100,-100,0,0,100,0.00,40.00,0,-999,0,0.00
2013-4-1,57,42,27,-100,-100,-100,0,0,100,0.00,40.00,0,-999,0,0.00
2013-4-2,57,42,30,-100,-100,-100,0,0,100,0.00,40.00,0,-999,0,0.00
2013-4-3,54,39,29,-100,-100,-100,0,0,100,0.00,40.00,0,-999,0,0.00
2013-4-4,52,41,33,-100,-100,-100,0,0,100,0.00,40.00,0,-999,0,0.01
2013-4-5,42,37,34,-100,-100,-100,0,0,100,0.00,40.00,0,-999,0,0.01
2013-4-6,40,36,34,-100,-100,-100,0,0,100,0.00,40.00,0,-999,0,0.02
2013-4-7,37,34,27,-100,-100,-100,0,0,100,0.00,40.00,0,-999,0,0.06
2013-4-8,33,28,23,-100,-100,-100,0,0,100,0.00,40.00,0,-999,0,0.01
2013-4-9,43,31,22,-100,-100,-100,0,0,100,0.00,40.00,0,-999,0,0.01
2013-4-10,43,34,25,-100,-100,-100,0,0,100,0.00,40.00,0,-999,0,0.01
2013-4-11,48,35,25,-100,-100,-100,0,0,100,0.00,40.00,0,-999,0,0.01
2013-4-12,48,33,19,-100,-100,-100,0,0,100,0.00,40.00,0,-999,0,0.00
2013-4-13,37,32,25,-100,-100,-100,0,0,100,0.00,40.00,0,-999,0,0.02
2013-4-14,33,26,19,-100,-100,-100,0,0,100,0.00,40.00,0,-999,0,0.01
2013-4-15,33,27,19,-100,-100,-100,0,0,100,0.00,40.00,0,-999,0,0.01
2013-4-16,36,25,18,-100,-100,-100,0,0,100,0.00,40.00,0,-999,0,0.00
2013-4-17,37,25,11,-100,-100,-100,0,0,100,0.00,40.00,0,-999,0,0.00
2013-4-18,43,27,9,-100,-100,-100,0,0,100,0.00,40.00,0,-999,0,0.01
2013-4-19,36,34,32,-100,-100,-100,0,0,100,0.00,40.00,0,-999,0,0.03
2013-4-20,42,37,32,-100,-100,-100,0,0,100,0.00,40.00,0,-999,0,0.02
2013-4-21,46,36,29,-100,-100,-100,0,0,100,0.00,40.00,0,-999,0,0.00
2013-4-22,37,30,24,-100,-100,-100,0,0,100,0.00,40.00,0,-999,0,0.00
2013-4-23,47,32,16,-100,-100,-100,0,0,100,0.00,40.00,0,-999,0,0.01
2013-4-24,52,44,30,-100,-100,-100,0,0,100,0.00,40.00,0,-999,0,0.00
2013-4-25,59,40,25,-100,-100,-100,0,0,100,0.00,40.00,0,-999,0,0.00
2013-4-26,61,45,27,-100,-100,-100,0,0,100,0.00,40.00,0,-999,0,0.00
2013-4-27,59,45,30,-100,-100,-100,0,0,100,0.00,40.00,0,-999,0,0.01
2013-4-28,53,43,36,-100,-100,-100,0,0,100,0.00,40.00,0,-999,0,0.01
2013-4-29,46,40,29,-100,-100,-100,0,0,100,0.00,40.00,0,-999,0,0.00
2013-4-30,37,28,20,-100,-100,-100,0,0,100,0.00,40.00,0,-999,0,0.00
2013-5-1,43,32,17,-100,-100,-100,0,0,100,0.00,40.00,0,-999,0,0.01
2013-5-2,56,38,22,-100,-100,-100,0,0,100,0.00,40.00,0,-999,0,0.01
2013-5-3,53,42,31,-100,-100,-100,0,0,100,0.00,40.00,0,-999,0,0.01
2013-5-4,49,43,37,-100,-100,-100,0,0,100,0.00,40.00,0,-999,0,0.01
2013-5-5,61,46,33,-100,-100,-100,0,0,100,0.00,40.00,0,-999,0,0.01
2013-5-6,62,48,33,-100,-100,-100,0,0,100,0.00,40.00,0,-999,0,0.00
2013-5-7,63,47,33,-100,-100,-100,0,0,100,0.00,40.00,0,-999,0,0.00
2013-5-8,67,50,35,-100,-100,-100,0,0,100,0.00,40.00,0,-999,0,0.00
2013-5-9,66,48,35,-100,-100,-100,0,0,100,0.00,40.00,0,-999,0,0.00
2013-5-10,67,49,35,-100,-100,-100,0,0,100,0.00,40.00,0,-999,0,0.01
2013-5-11,71,50,37,-100,-100,-100,0,0,100,0.00,40.00,0,-999,0,0.00
2013-5-12,71,53,38,-100,-100,-100,0,0,100,0.00,40.00,0,-999,0,0.00
2013-5-13,67,51,37,-100,-100,-100,0,0,100,0.00,40.00,0,-999,0,0.01
2013-5-14,60,47,32,-100,-100,-100,0,0,100,0.00,40.00,0,-999,0,0.00
2013-5-15,59,45,35,-100,-100,-100,0,0,100,0.00,40.00,0,-999,0,0.00
2013-5-16,56,44,35,-100,-100,-100,0,0,100,0.00,40.00,0,-999,0,0.01
2013-5-17,46,41,38,-100,-100,-100,0,0,100,0.00,40.00,0,-999,0,0.01
2013-5-18,49,41,35,-100,-100,-100,0,0,100,0.00,40.00,0,-999,0,0.01
2013-5-19,48,41,34,-100,-100,-100,0,0,100,0.00,40.00,0,-999,0,0.00
2013-5-20,63,46,35,-100,-100,-100,0,0,100,0.00,40.00,0,-999,0,0.01
2013-5-21,60,49,37,-100,-100,-100,0,0,100,0.00,40.00,0,-999,0,0.00
2013-5-22,39,34,27,-100,-100,-100,0,0,100,0.00,40.00,0,-999,0,0.00
2013-5-23,49,37,24,-100,-100,-100,0,0,100,0.00,40.00,0,-999,0,0.01
2013-5-24,43,37,33,-100,-100,-100,0,0,100,0.00,40.00,0,-999,0,0.01
2013-5-25,53,42,35,-100,-100,-100,0,0,100,0.00,40.00,0,-999,0,0.01
2013-5-26,53,43,36,-100,-100,-100,0,0,100,0.00,40.00,0,-999,0,0.01
2013-5-27,49,42,38,-100,-100,-100,0,0,100,0.00,40.00,0,-999,0,0.01
2013-5-28,47,42,39,-100,-100,-100,0,0,100,0.00,40.00,0,-999,0,0.01
2013-5-29,42,39,34,-100,-100,-100,0,0,100,0.00,40.00,0,-999,0,0.02
2013-5-30,48,40,33,-100,-100,-100,0,0,100,0.00,40.00,0,-999,0,0.01
2013-5-31,56,43,31,-100,-100,-100,0,0,100,0.00,40.00,0,-999,0,0.01
2013-6-1,62,49,34,-100,-100,-100,0,0,100,0.00,40.00,0,-999,0,0.01
2013-6-2,59,48,40,-100,-100,-100,0,0,100,0.00,40.00,0,-999,0,0.01
2013-6-3,59,48,37,-100,-100,-100,0,0,100,0.00,40.00,0,-999,0,0.01
2013-6-4,65,52,39,-100,-100,-100,0,0,100,0.00,40.00,0,-999,0,0.00
2013-6-5,69,54,38,-100,-100,-100,0,0,100,0.00,40.00,0,-999,0,0.00
2013-6-6,74,58,42,-100,-100,-100,0,0,100,0.00,40.00,0,-999,0,0.00
2013-6-7,74,57,44,-100,-100,-100,0,0,100,0.00,40.00,0,-999,0,0.01
2013-6-8,72,57,41,-100,-100,-100,0,0,100,0.00,40.00,0,-999,0,0.00
2013-6-9,73,58,42,-100,-100,-100,0,0,100,0.00,40.00,0,-999,0,0.00
2013-6-10,74,59,43,-100,-100,-100,0,0,100,0.00,40.00,0,-999,0,0.00
2013-6-11,66,57,48,-100,-100,-100,0,0,100,0.00,40.00,0,-999,0,0.01
2013-6-12,65,55,43,-100,-100,-100,0,0,100,0.00,40.00,0,-999,0,0.00
2013-6-13,56,47,37,-100,-100,-100,0,0,100,0.00,40.00,0,-999,0,0.00
2013-6-14,57,43,36,-100,-100,-100,0,0,100,0.00,40.00,0,-999,0,0.01
2013-6-15,69,53,36,-100,-100,-100,0,0,100,0.00,40.00,0,-999,0,0.01
2013-6-16,76,60,43,-100,-100,-100,0,0,100,0.00,40.00,0,-999,0,0.01
2013-6-17,75,63,46,-100,-100,-100,0,0,100,0.00,40.00,0,-999,0,0.00
2013-6-18,71,59,44,-100,-100,-100,0,0,100,0.00,40.00,0,-999,0,0.00
2013-6-19,47,41,36,-100,-100,-100,0,0,100,0.00,40.00,0,-999,0,0.03
2013-6-20,44,36,34,-100,-100,-100,0,0,100,0.00,40.00,0,-999,0,0.02
2013-6-22,55,52,44,-100,-100,-100,0,0,100,0.00,40.00,0,-999,0,0.01
2013-6-23,62,52,38,-100,-100,-100,0,0,100,0.00,40.00,0,-999,0,0.00
2013-6-24,54,50,46,-100,-100,-100,0,0,100,0.00,40.00,0,-999,0,0.01
2013-6-25,50,47,46,-100,-100,-100,0,0,100,0.00,40.00,0,-999,0,0.03
2013-6-26,57,52,48,-100,-100,-100,0,0,100,0.00,40.00,0,-999,0,0.02
2013-6-27,77,60,46,-100,-100,-100,0,0,100,0.00,40.00,0,-999,0,0.01
2013-6-28,85,67,48,-100,-100,-100,0,0,100,0.00,40.00,0,-999,0,0.01
2013-6-29,84,70,58,-100,-100,-100,0,0,100,0.00,40.00,0,-999,0,0.01
2013-6-30,85,71,57,-100,-100,-100,0,0,100,0.00,40.00,0,-999,0,0.01
2013-7-1,93,73,58,-100,-100,-100,0,0,100,0.00,40.00,0,-999,0,0.00
2013-7-2,90,73,58,-100,-100,-100,0,0,100,0.00,40.00,0,-999,0,0.00
2013-7-3,84,71,59,-100,-100,-100,0,0,100,0.00,40.00,0,-999,0,0.00
2013-7-4,78,65,52,-100,-100,-100,0,0,100,0.00,40.00,0,-999,0,0.00
2013-7-5,73,62,49,-100,-100,-100,0,0,100,0.00,40.00,0,-999,0,0.00
2013-7-6,77,60,48,-100,-100,-100,0,0,100,0.00,40.00,0,-999,0,0.00
2013-7-7,79,64,48,-100,-100,-100,0,0,100,0.00,40.00,0,-999,0,0.00
2013-7-8,75,61,52,-100,-100,-100,0,0,100,0.00,40.00,0,-999,0,0.00
2013-7-9,80,63,48,-100,-100,-100,0,0,100,0.00,40.00,0,-999,0,0.00
2013-7-10,85,68,50,-100,-100,-100,0,0,100,0.00,40.00,0,-999,0,0.00
2013-7-11,70,59,51,-100,-100,-100,0,0,100,0.00,40.00,0,-999,0,0.00
2013-7-12,72,58,46,-100,-100,-100,0,0,100,0.00,40.00,0,-999,0,0.01
2013-7-13,72,60,46,-100,-100,-100,0,0,100,0.00,40.00,0,-999,0,0.00
2013-7-14,77,62,47,-100,-100,-100,0,0,100,0.00,40.00,0,-999,0,0.00
2013-7-15,83,61,50,-100,-100,-100,0,0,100,0.00,40.00,0,-999,0,0.00
2013-7-16,85,68,59,-100,-100,-100,0,0,100,0.00,40.00,0,-999,0,0.00
2013-7-17,81,67,55,-100,-100,-100,0,0,100,0.00,40.00,0,-999,0,0.00
2013-7-18,82,69,53,-100,-100,-100,0,0,100,0.00,40.00,0,-999,0,0.00
2013-7-19,85,66,52,-100,-100,-100,0,0,100,0.00,40.00,0,-999,0,0.00
2013-7-20,84,67,53,-100,-100,-100,0,0,100,0.00,40.00,0,-999,0,0.00
2013-7-21,82,66,48,-100,-100,-100,0,0,100,0.00,40.00,0,-999,0,0.00
2013-7-22,81,64,47,-100,-100,-100,0,0,100,0.00,40.00,0,-999,0,0.00
2013-7-23,84,65,49,-100,-100,-100,0,0,100,0.00,40.00,0,-999,0,0.00
2013-7-24,84,69,52,-100,-100,-100,0,0,100,0.00,40.00,0,-999,0,0.00
2013-7-25,83,68,53,-100,-100,-100,0,0,100,0.00,40.00,0,-999,0,0.00
2013-7-26,80,65,51,-100,-100,-100,0,0,100,0.00,40.00,0,-999,0,0.00
2013-7-27,79,64,52,-100,-100,-100,0,0,100,0.00,40.00,0,-999,0,0.00
2013-7-28,75,61,47,-100,-100,-100,0,0,100,0.00,40.00,0,-999,0,0.00
2013-7-29,72,60,46,-100,-100,-100,0,0,100,0.00,40.00,0,-999,0,0.00
2013-7-30,78,64,52,-100,-100,-100,0,0,100,0.00,40.00,0,-999,0,0.00
2013-7-31,78,66,53,-100,-100,-100,0,0,100,0.00,40.00,0,-999,0,0.00
2013-8-1,63,57,49,-100,-100,-100,0,0,100,0.00,40.00,0,-999,0,0.00
2013-8-2,66,54,43,-100,-100,-100,0,0,100,0.00,40.00,0,-999,0,0.00
2013-8-3,72,57,43,-100,-100,-100,0,0,100,0.00,40.00,0,-999,0,0.00
2013-8-4,77,62,44,-100,-100,-100,0,0,100,0.00,40.00,0,-999,0,0.00
2013-8-5,78,63,51,-100,-100,-100,0,0,100,0.00,40.00,0,-999,0,0.01
2013-8-6,79,64,47,-100,-100,-100,0,0,100,0.00,40.00,0,-999,0,0.00
2013-8-7,82,64,47,-100,-100,-100,0,0,100,0.00,40.00,0,-999,0,0.00
2013-8-8,83,65,55,-100,-100,-100,0,0,100,0.00,40.00,0,-999,0,0.01
2013-8-9,81,64,54,-100,-100,-100,0,0,100,0.00,40.00,0,-999,0,0.00
2013-8-10,79,64,50,-100,-100,-100,0,0,100,0.00,40.00,0,-999,0,0.00
2013-8-11,75,61,51,-100,-100,-100,0,0,100,0.00,40.00,0,-999,0,0.00
2013-8-12,81,66,49,-100,-100,-100,0,0,100,0.00,40.00,0,-999,0,0.01
2013-8-13,78,64,52,-100,-100,-100,0,0,100,0.00,40.00,0,-999,0,0.00
2013-8-14,82,64,50,-100,-100,-100,0,0,100,0.00,40.00,0,-999,0,0.00
2013-8-15,83,67,50,-100,-100,-100,0,0,100,0.00,40.00,0,-999,0,0.00
2013-8-16,81,66,53,-100,-100,-100,0,0,100,0.00,40.00,0,-999,0,0.00
2013-8-17,79,68,53,-100,-100,-100,0,0,100,0.00,40.00,0,-999,0,0.00
2013-8-18,80,67,50,-100,-100,-100,0,0,100,0.00,40.00,0,-999,0,0.00
2013-8-19,83,64,48,-100,-100,-100,0,0,100,0.00,40.00,0,-999,0,0.00
2013-8-20,80,64,48,-100,-100,-100,0,0,100,0.00,40.00,0,-999,0,0.00
2013-8-21,81,62,49,-100,-100,-100,0,0,100,0.00,40.00,0,-999,0,0.00
2013-8-22,76,65,54,-100,-100,-100,0,0,100,0.00,40.00,0,-999,0,0.00
2013-8-23,71,60,51,-100,-100,-100,0,0,100,0.00,40.00,0,-999,0,0.00
2013-8-24,73,62,48,-100,-100,-100,0,0,100,0.00,40.00,0,-999,0,0.00
2013-8-25,75,63,52,-100,-100,-100,0,0,100,0.00,40.00,0,-999,0,0.00
2013-8-26,70,58,48,-100,-100,-100,0,0,100,0.00,40.00,0,-999,0,0.00
2013-8-27,70,57,47,-100,-100,-100,0,0,100,0.00,40.00,0,-999,0,0.00
2013-8-28,71,64,54,-100,-100,-100,0,0,100,0.00,40.00,0,-999,0,0.01
2013-8-29,73,64,53,-100,-100,-100,0,0,100,0.00,40.00,0,-999,0,0.01
2013-8-30,73,61,47,-100,-100,-100,0,0,100,0.00,40.00,0,-999,0,0.00
2013-8-31,76,59,47,-100,-100,-100,0,0,100,0.00,40.00,0,-999,0,0.00
2013-9-1,80,63,49,-100,-100,-100,0,0,100,0.00,40.00,0,-999,0,0.00
2013-9-2,69,59,54,-100,-100,-100,0,0,100,0.00,40.00,0,-999,0,0.00
2013-9-3,67,59,54,-100,-100,-100,0,0,100,0.00,40.00,0,-999,0,0.00
2013-9-4,74,65,53,-100,-100,-100,0,0,100,0.00,40.00,0,-999,0,0.01
2013-9-5,70,57,52,-100,-100,-100,0,0,100,0.00,40.00,0,-999,0,0.02
2013-9-6,63,54,46,-100,-100,-100,0,0,100,0.00,40.00,0,-999,0,0.01
2013-9-7,67,55,42,-100,-100,-100,0,0,100,0.00,40.00,0,-999,0,0.00
2013-9-8,68,56,44,-100,-100,-100,0,0,100,0.00,40.00,0,-999,0,0.00
2013-9-9,65,54,44,-100,-100,-100,0,0,100,0.00,40.00,0,-999,0,0.00
2013-9-10,74,56,45,-100,-100,-100,0,0,100,0.00,40.00,0,-999,0,0.00
2013-9-11,78,66,47,-100,-100,-100,0,0,100,0.00,40.00,0,-999,0,1.82
2013-9-12,71,59,50,-100,-100,-100,0,0,100,0.00,40.00,0,-999,0,1.82
2013-9-13,69,58,53,-100,-100,-100,0,0,100,0.00,40.00,0,-999,0,0.00
2013-9-14,70,58,52,-100,-100,-100,0,0,100,0.00,40.00,0,-999,0,0.00
2013-9-15,72,60,49,-100,-100,-100,0,0,100,0.00,40.00,0,-999,0,0.01
2013-9-16,67,56,46,-100,-100,-100,0,0,100,0.00,40.00,0,-999,0,0.12
2013-9-17,58,50,44,-100,-100,-100,0,0,100,0.00,40.00,0,-999,0,0.04
2013-9-18,43,40,36,-100,-100,-100,0,0,100,0.00,40.00,0,-999,0,0.00
2013-9-19,58,44,34,-100,-100,-100,0,0,100,0.00,40.00,0,-999,0,0.01
2013-9-20,70,54,37,-100,-100,-100,0,0,100,0.00,40.00,0,-999,0,0.01
2013-9-21,59,54,47,-100,-100,-100,0,0,100,0.00,40.00,0,-999,0,0.02
2013-9-22,49,44,42,-100,-100,-100,0,0,100,0.00,40.00,0,-999,0,0.00
2013-9-23,50,43,38,-100,-100,-100,0,0,100,0.00,40.00,0,-999,0,0.00
2013-9-24,44,40,34,-100,-100,-100,0,0,100,0.00,40.00,0,-999,0,0.03
2013-9-25,40,37,34,-100,-100,-100,0,0,100,0.00,40.00,0,-999,0,0.01
2013-9-26,41,38,34,-100,-100,-100,0,0,100,0.00,40.00,0,-999,0,0.01
2013-9-27,44,37,32,-100,-100,-100,0,0,100,0.00,40.00,0,-999,0,0.01
2013-9-28,44,38,34,-100,-100,-100,0,0,100,0.00,40.00,0,-999,0,0.05
2013-9-30,44,40,35,-100,-100,-100,0,0,100,0.00,40.00,0,-999,0,0.06
2013-10-1,41,38,35,-100,-100,-100,0,0,100,0.00,40.00,0,-999,0,0.00
2013-10-2,46,38,27,-100,-100,-100,0,0,100,0.00,40.00,0,-999,0,0.00
2013-10-3,39,34,31,-100,-100,-100,0,0,100,0.00,40.00,0,-999,0,0.01
2013-10-4,47,39,31,-100,-100,-100,0,0,100,0.00,40.00,0,-999,0,0.01
2013-10-5,53,40,28,-100,-100,-100,0,0,100,0.00,40.00,0,-999,0,0.00
2013-10-6,60,43,30,-100,-100,-100,0,0,100,0.00,40.00,0,-999,0,0.01
2013-10-7,52,42,33,-100,-100,-100,0,0,100,0.00,40.00,0,-999,0,0.00
2013-10-8,40,34,31,-100,-100,-100,0,0,100,0.00,40.00,0,-999,0,0.00
2013-10-9,50,36,32,-100,-100,-100,0,0,100,0.00,40.00,0,-999,0,0.01
2013-10-10,47,37,31,-100,-100,-100,0,0,100,0.00,40.00,0,-999,0,0.00
2013-10-11,47,39,32,-100,-100,-100,0,0,100,0.00,40.00,0,-999,0,0.00
2013-10-12,42,36,32,-100,-100,-100,0,0,100,0.00,40.00,0,-999,0,0.00
2013-10-13,41,38,34,-100,-100,-100,0,0,100,0.00,40.00,0,-999,0,0.01
2013-10-14,45,36,30,-100,-100,-100,0,0,100,0.00,40.00,0,-999,0,0.00
2013-10-15,48,37,28,-100,-100,-100,0,0,100,0.00,40.00,0,-999,0,0.01
2013-10-16,47,36,29,-100,-100,-100,0,0,100,0.00,40.00,0,-999,0,0.00
2013-10-17,46,39,29,-100,-100,-100,0,0,100,0.00,40.00,0,-999,0,0.00
2013-10-18,51,38,27,-100,-100,-100,0,0,100,0.00,40.00,0,-999,0,0.00
2013-10-19,52,39,29,-100,-100,-100,0,0,100,0.00,40.00,0,-999,0,0.00
2013-10-20,51,43,31,-100,-100,-100,0,0,100,0.00,40.00,0,-999,0,0.00
2013-10-21,46,39,34,-100,-100,-100,0,0,100,0.00,40.00,0,-999,0,0.00
2013-10-22,59,45,33,-100,-100,-100,0,0,100,0.00,40.00,0,-999,0,0.00
2013-10-23,52,39,33,-100,-100,-100,0,0,100,0.00,40.00,0,-999,0,0.00
2013-10-24,56,50,40,-100,-100,-100,0,0,100,0.00,40.00,0,-999,0,0.00
2013-10-25,41,34,32,-100,-100,-100,0,0,100,0.00,40.00,0,-999,0,0.00
2013-10-26,54,39,31,-100,-100,-100,0,0,100,0.00,40.00,0,-999,0,0.00
2013-10-27,49,41,32,-100,-100,-100,0,0,100,0.00,40.00,0,-999,0,0.01
2013-11-2,40,35,32,-100,-100,-100,0,0,100,0.00,40.00,0,-999,0,0.02
2013-11-3,29,26,24,-100,-100,-100,0,0,100,0.00,40.00,0,-999,0,0.01
2013-11-4,28,23,15,-100,-100,-100,0,0,100,0.00,40.00,0,-999,0,0.01
2013-11-5,27,20,9,-100,-100,-100,0,0,100,0.00,40.00,0,-999,0,0.02
2013-11-6,34,31,27,-100,-100,-100,0,0,100,0.00,40.00,0,-999,0,0.01
2013-11-7,34,34,34,-100,-100,-100,0,0,100,0.00,40.00,0,-999,0,0.00
2013-11-8,32,31,29,-100,-100,-100,0,0,100,0.00,40.00,0,-999,0,0.01
2013-11-10,44,35,31,-100,-100,-100,0,0,100,0.00,40.00,0,-999,0,0.00
2013-11-11,50,34,28,-100,-100,-100,0,0,100,0.00,40.00,0,-999,0,0.00
2013-11-12,48,39,31,-100,-100,-100,0,0,100,0.00,40.00,0,-999,0,0.01
2013-11-13,41,39,36,-100,-100,-100,0,0,100,0.00,40.00,0,-999,0,0.00
2013-11-14,38,30,27,-100,-100,-100,0,0,100,0.00,40.00,0,-999,0,0.00
2013-11-15,29,29,28,-100,-100,-100,0,0,100,0.00,40.00,0,-999,0,0.00
2013-11-16,27,26,24,-100,-100,-100,0,0,100,0.00,40.00,0,-999,0,0.03
2013-11-17,31,27,24,-100,-100,-100,0,0,100,0.00,40.00,0,-999,0,0.00
2013-11-18,34,26,18,-100,-100,-100,0,0,100,0.00,40.00,0,-999,0,0.00
2013-11-19,34,34,33,-100,-100,-100,0,0,100,0.00,40.00,0,-999,0,0.06
2013-11-20,34,26,13,-100,-100,-100,0,0,100,0.00,40.00,0,-999,0,0.04
2013-11-21,26,19,11,-100,-100,-100,0,0,100,0.00,40.00,0,-999,0,0.00
2013-11-22,30,18,9,-100,-100,-100,0,0,100,0.00,40.00,0,-999,0,0.00
2013-11-23,37,25,14,-100,-100,-100,0,0,100,0.00,40.00,0,-999,0,0.01
2013-11-24,39,26,14,-100,-100,-100,0,0,100,0.00,40.00,0,-999,0,0.00
2013-11-25,28,24,21,-100,-100,-100,0,0,100,0.00,40.00,0,-999,0,0.01
2013-11-26,41,30,21,-100,-100,-100,0,0,100,0.00,40.00,0,-999,0,0.00
2013-11-27,42,31,24,-100,-100,-100,0,0,100,0.00,40.00,0,-999,0,0.00
2013-11-28,45,29,21,-100,-100,-100,0,0,100,0.00,40.00,0,-999,0,0.00
2013-11-29,42,31,18,-100,-100,-100,0,0,100,0.00,40.00,0,-999,0,0.01
2013-11-30,35,33,31,-100,-100,-100,0,0,100,0.00,40.00,0,-999,0,0.01
2013-12-1,34,33,33,-100,-100,-100,0,0,100,0.00,40.00,0,-999,0,0.05
2013-12-2,36,26,17,-100,-100,-100,0,0,100,0.00,40.00,0,-999,0,0.03
2013-12-3,18,12,10,-100,-100,-100,0,0,100,0.00,40.00,0,-999,0,0.00
2013-12-4,11,4,-5,-100,-100,-100,0,0,100,0.00,40.00,0,-999,0,0.00
2013-12-5,13,0,-14,-100,-100,-100,0,0,100,0.00,40.00,0,-999,0,0.00
2013-12-6,10,2,-1,-100,-100,-100,0,0,100,0.00,40.00,0,-999,0,0.01
2013-12-7,9,5,-6,-100,-100,-100,0,0,100,0.00,40.00,0,-999,0,0.01
2013-12-8,8,-3,-13,-100,-100,-100,0,0,100,0.00,40.00,0,-999,0,0.00
2013-12-9,11,6,-10,-100,-100,-100,0,0,100,0.00,40.00,0,-999,0,0.02
2013-12-10,21,15,8,-100,-100,-100,0,0,100,0.00,40.00,0,-999,0,0.01
2013-12-11,22,16,7,-100,-100,-100,0,0,100,0.00,40.00,0,-999,0,0.00
2013-12-12,27,16,8,-100,-100,-100,0,0,100,0.00,40.00,0,-999,0,0.01
2013-12-13,30,27,22,-100,-100,-100,0,0,100,0.00,40.00,0,-999,0,0.02
2013-12-14,31,29,27,-100,-100,-100,0,0,100,0.00,40.00,0,-999,0,0.00
2013-12-15,31,27,23,-100,-100,-100,0,0,100,0.00,40.00,0,-999,0,0.00
2013-12-16,34,23,14,-100,-100,-100,0,0,100,0.00,40.00,0,-999,0,0.00
2013-12-17,30,21,16,-100,-100,-100,0,0,100,0.00,40.00,0,-999,0,0.01
2013-12-18,31,25,21,-100,-100,-100,0,0,100,0.00,40.00,0,-999,0,0.01
2013-12-19,25,19,7,-100,-100,-100,0,0,100,0.00,40.00,0,-999,0,0.00
2013-12-20,17,9,4,-100,-100,-100,0,0,100,0.00,40.00,0,-999,0,0.00
2013-12-21,27,23,16,-100,-100,-100,0,0,100,0.00,40.00,0,-999,0,0.03
2013-12-22,31,28,27,-100,-100,-100,0,0,100,0.00,40.00,0,-999,0,0.01
2013-12-23,33,31,29,-100,-100,-100,0,0,100,0.00,40.00,0,-999,0,0.02
2013-12-24,28,15,9,-100,-100,-100,0,0,100,0.00,40.00,0,-999,0,0.01
2013-12-25,29,17,6,-100,-100,-100,0,0,100,0.00,40.00,0,-999,0,0.01
2013-12-26,34,20,11,-100,-100,-100,0,0,100,0.00,40.00,0,-999,0,0.01
2013-12-27,33,23,15,-100,-100,-100,0,0,100,0.00,40.00,0,-999,0,0.01
2013-12-28,25,20,17,-100,-100,-100,0,0,100,0.00,40.00,0,-999,0,0.00
2013-12-29,27,17,6,-100,-100,-100,0,0,100,0.00,40.00,0,-999,0,0.00
2013-12-30,29,23,19,-100,-100,-100,0,0,100,0.00,40.00,0,-999,0,0.01
2013-12-31,30,27,20,-100,-100,-100,0,0,100,0.00,40.00,0,-999,0,0.01
2014-1-1,31,19,9,-100,-100,-100,0,0,100,0.00,40.00,0,-999,0,0.00
2014-1-2,34,23,17,-100,-100,-100,0,0,100,0.00,40.00,0,-999,0,0.01